Location: Siratepeler Tepesi
(39.1042°N, 32.0781°E)
Time: 04:53:59
(UTC+00:00)

Cosmos 1666 Rocket - Pass Details

Date: 11 April 2026
Orbit: 598 x 624 km, 82.5° (Epoch: 9 May)

Event Time Altitude Azimuth Distance (km) Brightness Sun altitude
Rises 17:08:21 0° 187° (S) 2,828 6.8 -8.9°
Reaches altitude 10° 17:10:33 10° 188° (S) 1,929 6.0 -9.3°
Maximum altitude 17:14:49 84° 278° (W) 607 3.6 -10.1°
Drops below altitude 10° 17:19:07 10° 6° (N) 1,946 6.3 -10.9°
Sets 17:21:20 0° 7° (N) 2,855 7.2 -11.3°
